Location: Trézény
(48.7583°N, 3.3674°W)
Time: 07:39:25
(UTC+02:00)

ISS - Visible Passes

Search period start: 21 May 2026 00:00
Search period end: 31 May 2026 00:00
Orbit: 414 x 424 km, 51.6° (Epoch: 20 May)

Date Brightness Start Highest point End Pass type
(mag) Time Alt. Az. Time Alt. Az. Time Alt. Az.
21 May -2.8 00:13:26 10° W 00:16:27 31° SW 00:16:41 31° SSW visible
21 May -3.3 23:25:36 10° WNW 23:28:50 46° SSW 23:30:39 22° SSE visible
22 May -3.7 22:37:50 10° WNW 22:41:09 67° SSW 22:44:28 10° ESE visible
23 May -1.6 00:15:35 10° WSW 00:17:27 14° SW 00:17:34 14° SW visible
23 May -2.0 23:27:17 10° W 23:29:54 21° SW 23:31:36 15° S visible
24 May -2.6 22:39:17 10° W 22:42:18 32° SW 22:45:18 10° SSE visible
26 May -1.3 22:41:19 10° WSW 22:43:13 14° SW 22:45:07 10° S visible
